Year,Month,Day,Hour,Minute,Value (Times are PST for temperature in C)
2008,08,31,00,00,9.40
2008,08,31,00,01,9.40
2008,08,31,00,02,9.40
2008,08,31,00,03,9.40
2008,08,31,00,04,9.30
2008,08,31,00,05,9.30
2008,08,31,00,06,9.30
2008,08,31,00,07,9.30
2008,08,31,00,08,9.30
2008,08,31,00,09,9.30
2008,08,31,00,10,9.30
2008,08,31,00,11,9.30
2008,08,31,00,12,9.30
2008,08,31,00,13,9.20
2008,08,31,00,14,9.20
2008,08,31,00,15,9.20
2008,08,31,00,16,9.20
2008,08,31,00,17,9.20
2008,08,31,00,18,9.20
2008,08,31,00,19,9.10
2008,08,31,00,20,9.10
2008,08,31,00,21,9.10
2008,08,31,00,22,9.10
2008,08,31,00,23,9.00
2008,08,31,00,24,9.00
2008,08,31,00,25,9.00
2008,08,31,00,26,9.00
2008,08,31,00,27,8.90
2008,08,31,00,28,8.90
2008,08,31,00,29,8.90
2008,08,31,00,30,8.90
2008,08,31,00,31,8.90
2008,08,31,00,32,9.00
2008,08,31,00,33,8.90
2008,08,31,00,34,9.00
2008,08,31,00,35,9.00
2008,08,31,00,36,9.00
2008,08,31,00,37,9.00
2008,08,31,00,38,9.00
2008,08,31,00,39,9.00
2008,08,31,00,40,9.00
2008,08,31,00,41,9.00
2008,08,31,00,42,9.00
2008,08,31,00,43,9.00
2008,08,31,00,44,9.00
2008,08,31,00,45,9.00
2008,08,31,00,46,9.00
2008,08,31,00,47,9.00
2008,08,31,00,48,9.00
2008,08,31,00,49,9.00
2008,08,31,00,50,9.00
2008,08,31,00,51,9.00
2008,08,31,00,52,9.00
2008,08,31,00,53,9.00
2008,08,31,00,54,9.00
2008,08,31,01,02,8.90
2008,08,31,01,03,8.90
2008,08,31,01,04,8.90
2008,08,31,01,05,8.90
2008,08,31,01,06,8.90
2008,08,31,01,07,8.90
2008,08,31,01,08,8.90
2008,08,31,01,09,8.80
2008,08,31,01,10,8.80
2008,08,31,01,11,8.80
2008,08,31,01,12,8.80
2008,08,31,01,13,8.80
2008,08,31,01,14,8.80
2008,08,31,01,15,8.80
2008,08,31,01,16,8.80
2008,08,31,01,17,8.70
2008,08,31,01,18,8.70
2008,08,31,01,19,8.70
2008,08,31,01,20,8.70
2008,08,31,01,21,8.70
2008,08,31,01,22,8.70
2008,08,31,01,23,8.70
2008,08,31,01,24,8.70
2008,08,31,01,25,8.70
2008,08,31,01,26,8.70
2008,08,31,01,27,8.70
2008,08,31,01,28,8.70
2008,08,31,01,29,8.60
2008,08,31,01,30,8.60
2008,08,31,01,31,8.60
2008,08,31,01,32,8.60
2008,08,31,01,33,8.60
2008,08,31,01,34,8.60
2008,08,31,01,35,8.60
2008,08,31,01,36,8.60
2008,08,31,01,37,8.60
2008,08,31,01,38,8.60
2008,08,31,01,39,8.50
2008,08,31,01,40,8.50
2008,08,31,01,41,8.50
2008,08,31,01,42,8.50
2008,08,31,01,43,8.50
2008,08,31,01,44,8.50
2008,08,31,01,45,8.50
2008,08,31,01,46,8.50
2008,08,31,01,47,8.50
2008,08,31,01,48,8.40
2008,08,31,01,49,8.40
2008,08,31,01,50,8.40
2008,08,31,01,51,8.40
2008,08,31,01,52,8.40
2008,08,31,01,53,8.40
2008,08,31,01,54,8.40
2008,08,31,01,55,8.40
2008,08,31,01,56,8.40
2008,08,31,01,57,8.40
2008,08,31,01,58,8.40
2008,08,31,01,59,8.40
2008,08,31,02,00,8.40
2008,08,31,02,01,8.40
2008,08,31,02,02,8.40
2008,08,31,02,03,8.40
2008,08,31,02,04,8.40
2008,08,31,02,05,8.40
2008,08,31,02,06,8.30
2008,08,31,02,07,8.30
2008,08,31,02,08,8.30
2008,08,31,02,09,8.30
2008,08,31,02,10,8.30
2008,08,31,02,11,8.30
2008,08,31,02,12,8.20
2008,08,31,02,13,8.20
2008,08,31,02,14,8.20
2008,08,31,02,15,8.20
2008,08,31,02,16,8.20
2008,08,31,02,17,8.20
2008,08,31,02,18,8.20
2008,08,31,02,19,8.20
2008,08,31,02,20,8.10
2008,08,31,02,21,8.10
2008,08,31,02,22,8.10
2008,08,31,02,23,8.10
2008,08,31,02,24,8.10
2008,08,31,02,25,8.10
2008,08,31,02,26,8.10
2008,08,31,02,27,8.10
2008,08,31,02,28,8.10
2008,08,31,02,29,8.10
2008,08,31,02,30,8.10
2008,08,31,02,31,8.10
2008,08,31,02,32,8.10
2008,08,31,02,33,8.10
2008,08,31,02,34,8.10
2008,08,31,02,35,8.10
2008,08,31,02,36,8.10
2008,08,31,02,37,8.10
2008,08,31,02,38,8.10
2008,08,31,02,39,8.10
2008,08,31,02,40,8.10
2008,08,31,02,41,8.10
2008,08,31,02,42,8.10
2008,08,31,02,43,8.10
2008,08,31,02,44,8.10
2008,08,31,02,45,8.10
2008,08,31,02,46,8.10
2008,08,31,02,47,8.10
2008,08,31,02,48,8.10
2008,08,31,02,49,8.10
2008,08,31,02,50,8.10
2008,08,31,02,51,8.00
2008,08,31,02,52,8.00
2008,08,31,02,53,8.00
2008,08,31,02,54,8.00
2008,08,31,02,55,8.00
2008,08,31,02,56,7.90
2008,08,31,02,57,7.90
2008,08,31,02,58,7.90
2008,08,31,02,59,7.90
2008,08,31,03,00,7.90
2008,08,31,03,01,8.00
2008,08,31,03,02,8.00
2008,08,31,03,03,8.00
2008,08,31,03,04,8.00
2008,08,31,03,05,8.00
2008,08,31,03,06,8.00
2008,08,31,03,07,8.00
2008,08,31,03,08,8.00
2008,08,31,03,09,8.00
2008,08,31,03,10,8.00
2008,08,31,03,11,7.90
2008,08,31,03,12,7.90
2008,08,31,03,13,7.90
2008,08,31,03,14,7.90
2008,08,31,03,15,7.90
2008,08,31,03,16,7.80
2008,08,31,03,17,7.80
2008,08,31,03,18,7.80
2008,08,31,03,19,7.80
2008,08,31,03,20,7.70
2008,08,31,03,21,7.70
2008,08,31,03,22,7.70
2008,08,31,03,23,7.70
2008,08,31,03,24,7.70
2008,08,31,03,25,7.70
2008,08,31,03,26,7.70
2008,08,31,03,27,7.70
2008,08,31,03,28,7.70
2008,08,31,03,29,7.60
2008,08,31,03,30,7.60
2008,08,31,03,31,7.60
2008,08,31,03,32,7.60
2008,08,31,03,33,7.60
2008,08,31,03,34,7.60
2008,08,31,03,35,7.60
2008,08,31,03,36,7.60
2008,08,31,03,37,7.60
2008,08,31,03,38,7.60
2008,08,31,03,39,7.60
2008,08,31,03,40,7.60
2008,08,31,03,41,7.60
2008,08,31,03,42,7.60
2008,08,31,03,43,7.60
2008,08,31,03,44,7.60
2008,08,31,03,45,7.60
2008,08,31,03,46,7.60
2008,08,31,03,47,7.60
2008,08,31,03,48,7.50
2008,08,31,03,49,7.50
2008,08,31,03,50,7.50
2008,08,31,03,51,7.40
2008,08,31,03,52,7.40
2008,08,31,03,53,7.40
2008,08,31,03,54,7.40
2008,08,31,03,55,7.50
2008,08,31,03,56,7.50
2008,08,31,03,57,7.50
2008,08,31,03,58,7.50
2008,08,31,03,59,7.50
2008,08,31,04,00,7.50
2008,08,31,04,01,7.50
2008,08,31,04,02,7.40
2008,08,31,04,03,7.40
2008,08,31,04,04,7.40
2008,08,31,04,05,7.50
2008,08,31,04,06,7.50
2008,08,31,04,07,7.50
2008,08,31,04,08,7.50
2008,08,31,04,09,7.50
2008,08,31,04,10,7.50
2008,08,31,04,11,7.50
2008,08,31,04,12,7.50
2008,08,31,04,13,7.50
2008,08,31,04,14,7.50
2008,08,31,04,15,7.50
2008,08,31,04,16,7.60
2008,08,31,04,17,7.60
2008,08,31,04,18,7.50
2008,08,31,04,19,7.50
2008,08,31,04,20,7.50
2008,08,31,04,21,7.50
2008,08,31,04,22,7.50
2008,08,31,04,23,7.50
2008,08,31,04,24,7.50
2008,08,31,04,25,7.50
2008,08,31,04,26,7.50
2008,08,31,04,27,7.50
2008,08,31,04,28,7.50
2008,08,31,04,29,7.50
2008,08,31,04,30,7.40
2008,08,31,04,31,7.40
2008,08,31,04,32,7.40
2008,08,31,04,33,7.40
2008,08,31,04,34,7.50
2008,08,31,04,35,7.40
2008,08,31,04,36,7.50
2008,08,31,04,37,7.40
2008,08,31,04,38,7.40
2008,08,31,04,39,7.40
2008,08,31,04,40,7.40
2008,08,31,04,41,7.40
2008,08,31,04,42,7.40
2008,08,31,04,43,7.40
2008,08,31,04,44,7.40
2008,08,31,04,45,7.40
2008,08,31,04,46,7.40
2008,08,31,04,47,7.40
2008,08,31,04,48,7.40
2008,08,31,04,49,7.40
2008,08,31,04,50,7.40
2008,08,31,04,51,7.40
2008,08,31,04,52,7.40
2008,08,31,04,53,7.30
2008,08,31,04,54,7.30
2008,08,31,04,55,7.30
2008,08,31,04,56,7.30
2008,08,31,04,57,7.30
2008,08,31,04,58,7.30
2008,08,31,04,59,7.30
2008,08,31,05,00,7.30
2008,08,31,05,01,7.30
2008,08,31,05,02,7.30
2008,08,31,05,03,7.30
2008,08,31,05,04,7.30
2008,08,31,05,05,7.20
2008,08,31,05,06,7.20
2008,08,31,05,07,7.20
2008,08,31,05,08,7.20
2008,08,31,05,09,7.20
2008,08,31,05,10,7.20
2008,08,31,05,11,7.20
2008,08,31,05,12,7.20
2008,08,31,05,13,7.20
2008,08,31,05,14,7.10
2008,08,31,05,15,7.10
2008,08,31,05,16,7.10
2008,08,31,05,17,7.10
2008,08,31,05,18,7.10
2008,08,31,05,19,7.00
2008,08,31,05,20,7.00
2008,08,31,05,21,7.00
2008,08,31,05,22,7.00
2008,08,31,05,23,6.90
2008,08,31,05,24,6.90
2008,08,31,05,25,6.90
2008,08,31,05,26,6.90
2008,08,31,05,27,6.90
2008,08,31,05,28,6.90
2008,08,31,05,29,6.90
2008,08,31,05,30,6.90
2008,08,31,05,31,6.90
2008,08,31,05,32,6.90
2008,08,31,05,33,6.80
2008,08,31,05,34,6.80
2008,08,31,05,35,6.80
2008,08,31,05,36,6.80
2008,08,31,05,37,6.80
2008,08,31,05,38,6.80
2008,08,31,05,39,6.80
2008,08,31,05,40,6.80
2008,08,31,05,41,6.90
2008,08,31,05,42,6.90
2008,08,31,05,43,6.90
2008,08,31,05,44,6.80
2008,08,31,05,45,6.80
2008,08,31,05,46,6.80
2008,08,31,05,47,6.80
2008,08,31,05,48,6.80
2008,08,31,05,49,6.80
2008,08,31,05,50,6.80
2008,08,31,05,51,6.80
2008,08,31,05,52,6.80
2008,08,31,05,53,6.80
2008,08,31,05,54,6.80
2008,08,31,05,55,6.80
2008,08,31,05,56,6.80
2008,08,31,05,57,6.70
2008,08,31,05,58,6.70
2008,08,31,05,59,6.70
2008,08,31,06,00,6.70
2008,08,31,06,01,6.70
2008,08,31,06,02,6.70
2008,08,31,06,03,6.70
2008,08,31,06,04,6.70
2008,08,31,06,05,6.70
2008,08,31,06,06,6.70
2008,08,31,06,07,6.70
2008,08,31,06,08,6.70
2008,08,31,06,09,6.70
2008,08,31,06,10,6.70
2008,08,31,06,11,6.70
2008,08,31,06,12,6.70
2008,08,31,06,13,6.70
2008,08,31,06,14,6.70
2008,08,31,06,15,6.70
2008,08,31,06,16,6.70
2008,08,31,06,17,6.70
2008,08,31,06,18,6.70
2008,08,31,06,19,6.70
2008,08,31,06,20,6.70
2008,08,31,06,21,6.70
2008,08,31,06,22,6.70
2008,08,31,06,23,6.70
2008,08,31,06,24,6.70
2008,08,31,06,25,6.70
2008,08,31,06,26,6.60
2008,08,31,06,27,6.60
2008,08,31,06,28,6.60
2008,08,31,06,29,6.60
2008,08,31,06,30,6.60
2008,08,31,06,31,6.60
2008,08,31,06,32,6.60
2008,08,31,06,33,6.60
2008,08,31,06,34,6.60
2008,08,31,06,35,6.50
2008,08,31,06,36,6.50
2008,08,31,06,37,6.50
2008,08,31,06,38,6.50
2008,08,31,06,39,6.50
2008,08,31,06,40,6.50
2008,08,31,06,41,6.60
2008,08,31,06,42,6.60
2008,08,31,06,43,6.60
2008,08,31,06,44,6.60
2008,08,31,06,45,6.60
2008,08,31,06,46,6.60
2008,08,31,06,47,6.60
2008,08,31,06,48,6.60
2008,08,31,06,49,6.60
2008,08,31,06,50,6.60
2008,08,31,06,51,6.60
2008,08,31,06,52,6.60
2008,08,31,06,53,6.60
2008,08,31,06,54,6.60
2008,08,31,06,55,6.60
2008,08,31,06,56,6.60
2008,08,31,06,57,6.50
2008,08,31,06,58,6.50
2008,08,31,06,59,6.50
2008,08,31,07,00,6.50
2008,08,31,07,01,6.50
2008,08,31,07,02,6.50
2008,08,31,07,03,6.60
2008,08,31,07,04,6.60
2008,08,31,07,05,6.60
2008,08,31,07,06,6.60
2008,08,31,07,07,6.60
2008,08,31,07,08,6.60
2008,08,31,07,09,6.60
2008,08,31,07,10,6.60
2008,08,31,07,11,6.60
2008,08,31,07,12,6.70
2008,08,31,07,13,6.70
2008,08,31,07,14,6.70
2008,08,31,07,15,6.70
2008,08,31,07,16,6.70
2008,08,31,07,17,6.70
2008,08,31,07,18,6.70
2008,08,31,07,19,6.70
2008,08,31,07,20,6.80
2008,08,31,07,21,6.80
2008,08,31,07,22,6.80
2008,08,31,07,23,6.90
2008,08,31,07,24,6.90
2008,08,31,07,25,7.00
2008,08,31,07,26,7.00
2008,08,31,07,27,7.10
2008,08,31,07,28,7.10
2008,08,31,07,29,7.20
2008,08,31,07,30,7.20
2008,08,31,07,31,7.20
2008,08,31,07,32,7.20
2008,08,31,07,33,7.30
2008,08,31,07,34,7.30
2008,08,31,07,35,7.30
2008,08,31,07,36,7.40
2008,08,31,07,37,7.40
2008,08,31,07,38,7.40
2008,08,31,07,39,7.50
2008,08,31,07,40,7.50
2008,08,31,07,41,7.60
2008,08,31,07,42,7.60
2008,08,31,07,43,7.70
2008,08,31,07,44,7.70
2008,08,31,07,45,7.80
2008,08,31,07,46,7.80
2008,08,31,07,47,7.80
2008,08,31,07,48,7.90
2008,08,31,07,49,7.90
2008,08,31,07,50,8.00
2008,08,31,07,51,8.00
2008,08,31,07,52,8.10
2008,08,31,07,53,8.10
2008,08,31,07,54,8.20
2008,08,31,07,55,8.20
2008,08,31,07,56,8.30
2008,08,31,07,57,8.30
2008,08,31,07,58,8.40
2008,08,31,07,59,8.40
2008,08,31,08,00,8.50
2008,08,31,08,01,8.50
2008,08,31,08,02,8.60
2008,08,31,08,03,8.70
2008,08,31,08,04,8.70
2008,08,31,08,05,8.80
2008,08,31,08,06,8.80
2008,08,31,08,07,8.80
2008,08,31,08,08,8.90
2008,08,31,08,09,8.90
2008,08,31,08,10,9.00
2008,08,31,08,11,9.10
2008,08,31,08,12,9.10
2008,08,31,08,13,9.20
2008,08,31,08,14,9.30
2008,08,31,08,15,9.40
2008,08,31,08,16,9.50
2008,08,31,08,17,9.60
2008,08,31,08,18,9.80
2008,08,31,08,19,9.80
2008,08,31,08,20,10.00
2008,08,31,08,21,10.10
2008,08,31,08,22,10.10
2008,08,31,08,23,10.30
2008,08,31,08,24,10.40
2008,08,31,08,25,10.50
2008,08,31,08,26,10.60
2008,08,31,08,27,10.60
2008,08,31,08,28,10.70
2008,08,31,08,29,10.80
2008,08,31,08,30,10.80
2008,08,31,08,31,10.80
2008,08,31,08,32,10.90
2008,08,31,08,33,10.90
2008,08,31,08,34,10.90
2008,08,31,08,35,11.00
2008,08,31,08,36,11.00
2008,08,31,08,37,11.10
2008,08,31,08,38,11.10
2008,08,31,08,39,11.10
2008,08,31,08,40,11.20
2008,08,31,08,41,11.20
2008,08,31,08,42,11.20
2008,08,31,08,43,11.30
2008,08,31,08,44,11.30
2008,08,31,08,45,11.30
2008,08,31,08,46,11.40
2008,08,31,08,47,11.40
2008,08,31,08,48,11.40
2008,08,31,08,49,11.50
2008,08,31,08,50,11.50
2008,08,31,08,51,11.60
2008,08,31,08,52,11.60
2008,08,31,08,53,11.60
2008,08,31,08,54,11.70
2008,08,31,08,55,11.80
2008,08,31,08,56,11.80
2008,08,31,08,57,11.90
2008,08,31,08,58,12.00
2008,08,31,08,59,12.20
2008,08,31,09,00,12.30
2008,08,31,09,01,12.50
2008,08,31,09,02,12.70
2008,08,31,09,03,12.80
2008,08,31,09,04,13.00
2008,08,31,09,05,13.10
2008,08,31,09,06,13.30
2008,08,31,09,07,13.40
2008,08,31,09,08,13.50
2008,08,31,09,09,13.60
2008,08,31,09,10,13.70
2008,08,31,09,11,13.70
2008,08,31,09,12,13.70
2008,08,31,09,13,13.80
2008,08,31,09,14,13.80
2008,08,31,09,15,13.80
2008,08,31,09,16,13.90
2008,08,31,09,17,13.90
2008,08,31,09,18,13.90
2008,08,31,09,19,14.00
2008,08,31,09,20,14.00
2008,08,31,09,21,14.10
2008,08,31,09,22,14.10
2008,08,31,09,23,14.10
2008,08,31,09,24,14.10
2008,08,31,09,25,14.20
2008,08,31,09,26,14.20
2008,08,31,09,27,14.20
2008,08,31,09,28,14.20
2008,08,31,09,29,14.20
2008,08,31,09,30,14.20
2008,08,31,09,31,14.20
2008,08,31,09,32,14.20
2008,08,31,09,33,14.20
2008,08,31,09,34,14.20
2008,08,31,09,35,14.20
2008,08,31,09,36,14.10
2008,08,31,09,37,14.10
2008,08,31,09,38,14.10
2008,08,31,09,39,14.10
2008,08,31,09,40,14.00
2008,08,31,09,41,14.00
2008,08,31,09,42,13.90
2008,08,31,09,43,13.90
2008,08,31,09,44,14.00
2008,08,31,09,45,14.00
2008,08,31,09,46,14.00
2008,08,31,09,47,14.10
2008,08,31,09,48,14.10
2008,08,31,09,49,14.10
2008,08,31,09,50,14.10
2008,08,31,09,51,14.10
2008,08,31,09,52,14.10
2008,08,31,09,53,14.10
2008,08,31,09,54,14.10
2008,08,31,09,55,14.10
2008,08,31,09,56,14.10
2008,08,31,09,57,14.10
2008,08,31,09,58,14.10
2008,08,31,09,59,14.20
2008,08,31,10,00,14.20
2008,08,31,10,01,14.20
2008,08,31,10,02,14.20
2008,08,31,10,03,14.20
2008,08,31,10,04,14.30
2008,08,31,10,05,14.30
2008,08,31,10,06,14.30
2008,08,31,10,07,14.30
2008,08,31,10,08,14.30
2008,08,31,10,09,14.30
2008,08,31,10,10,14.30
2008,08,31,10,11,14.30
2008,08,31,10,12,14.30
2008,08,31,10,13,14.30
2008,08,31,10,14,14.40
2008,08,31,10,15,14.40
2008,08,31,10,16,14.40
2008,08,31,10,17,14.40
2008,08,31,10,18,14.50
2008,08,31,10,19,14.50
2008,08,31,10,20,14.40
2008,08,31,10,21,14.40
2008,08,31,10,22,14.40
2008,08,31,10,23,14.40
2008,08,31,10,24,14.50
2008,08,31,10,25,14.50
2008,08,31,10,26,14.60
2008,08,31,10,27,14.60
2008,08,31,10,28,14.60
2008,08,31,10,29,14.70
2008,08,31,10,30,14.70
2008,08,31,10,31,14.70
2008,08,31,10,32,14.80
2008,08,31,10,33,14.80
2008,08,31,10,34,14.80
2008,08,31,10,35,14.80
2008,08,31,10,36,14.80
2008,08,31,10,37,14.80
2008,08,31,10,38,14.80
2008,08,31,10,39,14.80
2008,08,31,10,40,14.80
2008,08,31,10,41,14.90
2008,08,31,10,42,15.00
2008,08,31,10,43,15.00
2008,08,31,10,44,15.00
2008,08,31,10,45,15.10
2008,08,31,10,46,15.20
2008,08,31,10,47,15.30
2008,08,31,10,48,15.40
2008,08,31,10,49,15.40
2008,08,31,10,50,15.50
2008,08,31,10,51,15.50
2008,08,31,10,52,15.60
2008,08,31,10,53,15.60
2008,08,31,10,54,15.60
2008,08,31,10,55,15.60
2008,08,31,10,56,15.70
2008,08,31,10,57,15.70
2008,08,31,10,58,15.80
2008,08,31,10,59,15.80
2008,08,31,11,00,15.90
2008,08,31,11,01,15.90
2008,08,31,11,02,16.00
2008,08,31,11,03,16.00
2008,08,31,11,04,16.00
2008,08,31,11,05,15.90
2008,08,31,11,06,15.90
2008,08,31,11,07,15.90
2008,08,31,11,08,15.90
2008,08,31,11,09,15.90
2008,08,31,11,10,16.00
2008,08,31,11,11,16.00
2008,08,31,11,12,16.10
2008,08,31,11,13,16.10
2008,08,31,11,14,16.10
2008,08,31,11,15,16.10
2008,08,31,11,16,16.10
2008,08,31,11,17,16.10
2008,08,31,11,18,16.00
2008,08,31,11,19,16.10
2008,08,31,11,20,16.20
2008,08,31,11,21,16.10
2008,08,31,11,22,16.20
2008,08,31,11,23,16.20
2008,08,31,11,24,16.30
2008,08,31,11,25,16.40
2008,08,31,11,26,16.40
2008,08,31,11,27,16.40
2008,08,31,11,28,16.50
2008,08,31,11,29,16.60
2008,08,31,11,30,16.70
2008,08,31,11,31,16.70
2008,08,31,11,32,16.70
2008,08,31,11,33,16.70
2008,08,31,11,34,16.70
2008,08,31,11,35,16.80
2008,08,31,11,36,16.80
2008,08,31,11,37,16.80
2008,08,31,11,38,16.80
2008,08,31,11,39,16.90
2008,08,31,11,40,16.90
2008,08,31,11,41,17.00
2008,08,31,11,42,17.00
2008,08,31,11,43,17.00
2008,08,31,11,44,17.00
2008,08,31,11,45,16.90
2008,08,31,11,46,16.90
2008,08,31,11,47,16.80
2008,08,31,11,48,16.80
2008,08,31,11,49,16.90
2008,08,31,11,50,16.90
2008,08,31,11,51,16.90
2008,08,31,11,52,16.90
2008,08,31,11,53,16.90
2008,08,31,11,54,16.90
2008,08,31,11,55,16.80
2008,08,31,11,56,16.80
2008,08,31,11,57,16.70
2008,08,31,11,58,16.60
2008,08,31,11,59,16.50
2008,08,31,12,00,16.50
2008,08,31,12,01,16.40
2008,08,31,12,02,16.30
2008,08,31,12,03,16.30
2008,08,31,12,04,16.30
2008,08,31,12,05,16.30
2008,08,31,12,06,16.40
2008,08,31,12,07,16.40
2008,08,31,12,08,16.50
2008,08,31,12,09,16.60
2008,08,31,12,10,16.70
2008,08,31,12,11,16.80
2008,08,31,12,12,16.80
2008,08,31,12,13,16.80
2008,08,31,12,14,16.90
2008,08,31,12,15,17.00
2008,08,31,12,16,17.10
2008,08,31,12,17,17.20
2008,08,31,12,18,17.20
2008,08,31,12,19,17.30
2008,08,31,12,20,17.40
2008,08,31,12,21,17.40
2008,08,31,12,22,17.30
2008,08,31,12,23,17.30
2008,08,31,12,24,17.30
2008,08,31,12,25,17.30
2008,08,31,12,26,17.20
2008,08,31,12,27,17.30
2008,08,31,12,28,17.30
2008,08,31,12,29,17.30
2008,08,31,12,30,17.40
2008,08,31,12,31,17.30
2008,08,31,12,32,17.30
2008,08,31,12,33,17.20
2008,08,31,12,34,17.10
2008,08,31,12,35,17.10
2008,08,31,12,36,17.10
2008,08,31,12,37,17.10
2008,08,31,12,38,17.10
2008,08,31,12,39,17.10
2008,08,31,12,40,17.10
2008,08,31,12,41,17.10
2008,08,31,12,42,17.10
2008,08,31,12,43,17.20
2008,08,31,12,44,17.20
2008,08,31,12,45,17.30
2008,08,31,12,46,17.40
2008,08,31,12,47,17.40
2008,08,31,12,48,17.50
2008,08,31,12,49,17.50
2008,08,31,12,50,17.50
2008,08,31,12,51,17.50
2008,08,31,12,52,17.50
2008,08,31,12,53,17.50
2008,08,31,12,54,17.40
2008,08,31,12,55,17.50
2008,08,31,12,56,17.50
2008,08,31,12,57,17.60
2008,08,31,12,58,17.70
2008,08,31,12,59,17.70
2008,08,31,13,00,17.70
2008,08,31,13,01,17.60
2008,08,31,13,02,17.60
2008,08,31,13,03,17.70
2008,08,31,13,04,17.70
2008,08,31,13,05,17.70
2008,08,31,13,06,17.70
2008,08,31,13,07,17.70
2008,08,31,13,08,17.80
2008,08,31,13,09,17.90
2008,08,31,13,10,18.00
2008,08,31,13,11,18.10
2008,08,31,13,12,18.30
2008,08,31,13,13,18.40
2008,08,31,13,14,18.40
2008,08,31,13,15,18.40
2008,08,31,13,16,18.50
2008,08,31,13,17,18.50
2008,08,31,13,18,18.50
2008,08,31,13,19,18.40
2008,08,31,13,20,18.30
2008,08,31,13,21,18.30
2008,08,31,13,22,18.30
2008,08,31,13,23,18.30
2008,08,31,13,24,18.40
2008,08,31,13,25,18.30
2008,08,31,13,26,18.30
2008,08,31,13,27,18.30
2008,08,31,13,28,18.20
2008,08,31,13,29,18.20
2008,08,31,13,30,18.20
2008,08,31,13,31,18.20
2008,08,31,13,32,18.20
2008,08,31,13,33,18.20
2008,08,31,13,34,18.30
2008,08,31,13,35,18.30
2008,08,31,13,36,18.40
2008,08,31,13,37,18.50
2008,08,31,13,38,18.50
2008,08,31,13,39,18.60
2008,08,31,13,40,18.60
2008,08,31,13,41,18.70
2008,08,31,13,42,18.70
2008,08,31,13,43,18.80
2008,08,31,13,44,18.80
2008,08,31,13,45,18.90
2008,08,31,13,46,18.80
2008,08,31,13,47,18.70
2008,08,31,13,48,18.50
2008,08,31,13,49,18.40
2008,08,31,13,50,18.40
2008,08,31,13,51,18.30
2008,08,31,13,52,18.40
2008,08,31,13,53,18.40
2008,08,31,13,54,18.40
2008,08,31,13,55,18.20
2008,08,31,13,56,18.10
2008,08,31,13,57,18.00
2008,08,31,13,58,17.80
2008,08,31,13,59,17.70
2008,08,31,14,00,17.60
2008,08,31,14,01,17.50
2008,08,31,14,02,17.40
2008,08,31,14,03,17.30
2008,08,31,14,04,17.20
2008,08,31,14,05,17.10
2008,08,31,14,06,17.10
2008,08,31,14,07,17.00
2008,08,31,14,08,17.00
2008,08,31,14,09,17.00
2008,08,31,14,10,17.00
2008,08,31,14,11,17.10
2008,08,31,14,12,17.00
2008,08,31,14,13,17.10
2008,08,31,14,14,17.20
2008,08,31,14,15,17.30
2008,08,31,14,16,17.40
2008,08,31,14,17,17.50
2008,08,31,14,18,17.60
2008,08,31,14,19,17.70
2008,08,31,14,20,17.80
2008,08,31,14,21,17.90
2008,08,31,14,22,18.00
2008,08,31,14,23,18.10
2008,08,31,14,24,18.20
2008,08,31,14,25,18.30
2008,08,31,14,26,18.30
2008,08,31,14,27,18.40
2008,08,31,14,28,18.40
2008,08,31,14,29,18.40
2008,08,31,14,30,18.20
2008,08,31,14,31,18.20
2008,08,31,14,32,18.20
2008,08,31,14,33,18.20
2008,08,31,14,34,18.20
2008,08,31,14,35,18.20
2008,08,31,14,36,18.30
2008,08,31,14,37,18.30
2008,08,31,14,38,18.30
2008,08,31,14,39,18.30
2008,08,31,14,40,18.30
2008,08,31,14,41,18.50
2008,08,31,14,42,18.60
2008,08,31,14,43,18.60
2008,08,31,14,44,18.60
2008,08,31,14,45,18.50
2008,08,31,14,46,18.50
2008,08,31,14,47,18.40
2008,08,31,14,48,18.30
2008,08,31,14,49,18.20
2008,08,31,14,50,18.00
2008,08,31,14,51,18.00
2008,08,31,14,52,18.00
2008,08,31,14,53,18.00
2008,08,31,14,54,18.00
2008,08,31,14,55,18.20
2008,08,31,14,56,18.20
2008,08,31,14,57,18.20
2008,08,31,14,58,18.20
2008,08,31,14,59,18.30
2008,08,31,15,00,18.40
2008,08,31,15,01,18.50
2008,08,31,15,02,18.60
2008,08,31,15,03,18.60
2008,08,31,15,04,18.70
2008,08,31,15,05,18.60
2008,08,31,15,06,18.70
2008,08,31,15,07,18.70
2008,08,31,15,08,18.60
2008,08,31,15,09,18.50
2008,08,31,15,10,18.60
2008,08,31,15,11,18.60
2008,08,31,15,12,18.70
2008,08,31,15,13,18.90
2008,08,31,15,14,18.90
2008,08,31,15,15,18.80
2008,08,31,15,16,18.80
2008,08,31,15,17,18.70
2008,08,31,15,18,18.70
2008,08,31,15,19,18.70
2008,08,31,15,20,18.80
2008,08,31,15,21,18.80
2008,08,31,15,22,18.80
2008,08,31,15,23,18.70
2008,08,31,15,24,18.60
2008,08,31,15,25,18.50
2008,08,31,15,26,18.50
2008,08,31,15,27,18.50
2008,08,31,15,28,18.50
2008,08,31,15,29,18.50
2008,08,31,15,30,18.50
2008,08,31,15,31,18.40
2008,08,31,15,32,18.40
2008,08,31,15,33,18.40
2008,08,31,15,34,18.40
2008,08,31,15,35,18.40
2008,08,31,15,36,18.40
2008,08,31,15,37,18.40
2008,08,31,15,38,18.30
2008,08,31,15,39,18.20
2008,08,31,15,40,18.10
2008,08,31,15,41,18.00
2008,08,31,15,42,18.00
2008,08,31,15,43,18.00
2008,08,31,15,44,18.00
2008,08,31,15,45,18.00
2008,08,31,15,46,18.00
2008,08,31,15,47,18.10
2008,08,31,15,48,18.00
2008,08,31,15,49,18.00
2008,08,31,15,50,18.00
2008,08,31,15,51,18.10
2008,08,31,15,52,18.10
2008,08,31,15,53,18.20
2008,08,31,15,54,18.20
2008,08,31,15,55,18.30
2008,08,31,15,56,18.30
2008,08,31,15,57,18.30
2008,08,31,15,58,18.30
2008,08,31,15,59,18.40
2008,08,31,16,00,18.50
2008,08,31,16,01,18.60
2008,08,31,16,02,18.60
2008,08,31,16,03,18.70
2008,08,31,16,04,18.60
2008,08,31,16,05,18.50
2008,08,31,16,06,18.50
2008,08,31,16,07,18.50
2008,08,31,16,08,18.50
2008,08,31,16,09,18.40
2008,08,31,16,10,18.30
2008,08,31,16,11,18.20
2008,08,31,16,12,18.10
2008,08,31,16,13,18.10
2008,08,31,16,14,18.10
2008,08,31,16,15,18.20
2008,08,31,16,16,18.20
2008,08,31,16,17,18.30
2008,08,31,16,18,18.30
2008,08,31,16,19,18.30
2008,08,31,16,20,18.40
2008,08,31,16,21,18.40
2008,08,31,16,22,18.50
2008,08,31,16,23,18.60
2008,08,31,16,24,18.60
2008,08,31,16,25,18.70
2008,08,31,16,26,18.70
2008,08,31,16,27,18.70
2008,08,31,16,28,18.70
2008,08,31,16,29,18.60
2008,08,31,16,30,18.60
2008,08,31,16,31,18.60
2008,08,31,16,32,18.60
2008,08,31,16,33,18.60
2008,08,31,16,34,18.60
2008,08,31,16,35,18.60
2008,08,31,16,36,18.60
2008,08,31,16,37,18.60
2008,08,31,16,38,18.60
2008,08,31,16,39,18.60
2008,08,31,16,40,18.60
2008,08,31,16,41,18.60
2008,08,31,16,42,18.60
2008,08,31,16,43,18.50
2008,08,31,16,44,18.50
2008,08,31,16,45,18.40
2008,08,31,16,46,18.40
2008,08,31,16,47,18.40
2008,08,31,16,48,18.40
2008,08,31,16,49,18.30
2008,08,31,16,50,18.30
2008,08,31,16,51,18.30
2008,08,31,16,52,18.20
2008,08,31,16,53,18.20
2008,08,31,16,54,18.20
2008,08,31,16,55,18.20
2008,08,31,16,56,18.20
2008,08,31,16,57,18.20
2008,08,31,16,58,18.20
2008,08,31,16,59,18.20
2008,08,31,17,00,18.20
2008,08,31,17,01,18.30
2008,08,31,17,02,18.30
2008,08,31,17,03,18.30
2008,08,31,17,04,18.20
2008,08,31,17,05,18.20
2008,08,31,17,06,18.20
2008,08,31,17,07,18.20
2008,08,31,17,08,18.30
2008,08,31,17,09,18.30
2008,08,31,17,10,18.40
2008,08,31,17,11,18.40
2008,08,31,17,12,18.30
2008,08,31,17,13,18.40
2008,08,31,17,14,18.40
2008,08,31,17,15,18.40
2008,08,31,17,16,18.40
2008,08,31,17,17,18.40
2008,08,31,17,18,18.30
2008,08,31,17,19,18.20
2008,08,31,17,20,18.20
2008,08,31,17,21,18.10
2008,08,31,17,22,18.00
2008,08,31,17,23,18.00
2008,08,31,17,24,18.10
2008,08,31,17,25,18.10
2008,08,31,17,26,18.20
2008,08,31,17,27,18.20
2008,08,31,17,28,18.20
2008,08,31,17,29,18.20
2008,08,31,17,30,18.10
2008,08,31,17,31,18.10
2008,08,31,17,32,18.00
2008,08,31,17,33,17.90
2008,08,31,17,34,17.90
2008,08,31,17,35,17.90
2008,08,31,17,36,17.90
2008,08,31,17,37,17.90
2008,08,31,17,38,17.90
2008,08,31,17,39,18.00
2008,08,31,17,40,18.00
2008,08,31,17,41,17.90
2008,08,31,17,42,17.90
2008,08,31,17,43,17.90
2008,08,31,17,44,17.90
2008,08,31,17,45,18.00
2008,08,31,17,46,18.00
2008,08,31,17,47,18.00